Regional Weather Roundup
Issued by NWS Charleston, WV

Home | Current Version | Previous Version | Graphics & Text | Print | Product List | Glossary On
Versions: 1 2 3 4 5 6 7 8 9 10 11 12 13 14 15 16 17 18 19 20 21 22 23 24 25 26 27
000
ASUS41 KRLX 172310
RWRRLX
West Virginia Regional Weather Roundup
National Weather Service Charleston WV
700 PM EDT THU APR 17 2014

Note: "fair" indicates few or no clouds below 12,000 feet with no
significant weather and/or obstructions to visibility.

WVZ003-180000-
Northern Panhandle of West Virginia

CITY           SKY/WX    TMP DP  RH WIND       PRES   REMARKS
WHEELING       SUNNY     64  25  22 S7        30.31F
$$

WVZ009-180000-
Northwest West Virginia

CITY           SKY/WX    TMP DP  RH WIND       PRES   REMARKS
PARKERSBURG    SUNNY     67  21  17 S6        30.32F
$$

WVZ006-180000-
Western West Virginia

CITY           SKY/WX    TMP DP  RH WIND       PRES   REMARKS
HUNTINGTON     SUNNY     68  18  14 CALM      30.27F
$$

WVZ015-180000-
West Central West Virginia

CITY           SKY/WX    TMP DP  RH WIND       PRES   REMARKS
CHARLESTON     MOSUNNY   68  22  17 SE8       30.28F
$$

WVZ031-180000-
North Central West Virginia

CITY           SKY/WX    TMP DP  RH WIND       PRES   REMARKS
CLARKSBURG     SUNNY     65  25  22 E6        30.31F
MORGANTOWN     SUNNY     62  24  23 E12       30.35S
$$

WVZ035-042-045-180000-
South Central West Virginia

CITY           SKY/WX    TMP DP  RH WIND       PRES   REMARKS
BECKLEY        SUNNY     56  23  27 SE12G18   30.36S
BLUEFIELD      SUNNY     57  23  26 VRB7G20   30.37S
LEWISBURG      SUNNY     53  20  26 E7        30.39F
$$

WVZ047-180000-
Northern Mountains of West Virginia

CITY           SKY/WX    TMP DP  RH WIND       PRES   REMARKS
ELKINS         SUNNY     60  22  23 SE16G23   30.35S
$$

WVZ052-180000-
Eastern Panhandle of West Virginia

CITY           SKY/WX    TMP DP  RH WIND       PRES   REMARKS
MARTINSBURG    CLEAR     54  27  35 VRB7      30.50F
PETERSBURG     CLEAR     61  32  33 SE9       30.44S
$$



USA.gov is the U.S. government's official web portal to all federal, state and local government web resources and services.